Wind_Speed
45 45 45 45 44 43 42 42 41 41 42 43 43 43 44 45 45 45 44 44 44 44 44 43 42 41 40 39 38 37 36 35 35 34 33 34 33 33 33 33 32 31 30 30 29 29 29 28 27 26 26 25 26 26 26 26 25 24 21 20 22 26 28 28 29 31 31 32 32 31 30 29 28 26 25 23 20 16 17 21 22 23 23 24 23 22 22 24
48 47 47 46 46 45 44 43 43 42 42 43 44 44 44 44 45 45 45 45 44 44 44 43 42 41 41 40 38 38 37 36 35 34 35 36 34 34 34 33 32 32 31 31 31 31 30 29 28 27 26 26 26 26 26 26 24 23 22 22 25 28 29 29 30 31 31 32 32 31 31 29 28 27 25 22 19 16 18 21 22 23 23 23 22 22 22 24
49 49 49 48 47 47 46 45 44 44 43 43 44 44 44 44 45 46 46 45 45 44 44 43 42 41 41 40 39 38 38 37 35 35 37 36 34 34 34 33 33 33 32 32 32 32 31 30 28 27 27 27 27 26 26 26 24 23 23 25 27 28 29 29 30 30 31 32 32 32 31 29 28 27 25 20 18 18 20 21 22 23 23 23 22 22 22 23
51 51 50 50 49 48 47 46 45 45 44 43 44 44 44 44 45 46 46 46 45 44 44 43 42 41 40 39 39 38 38 38 36 36 37 35 34 35 34 33 33 33 33 33 32 32 31 30 29 28 28 27 27 27 27 25 24 24 25 27 28 28 28 28 29 30 31 31 31 32 30 29 28 26 23 19 18 22 22 23 24 25 24 23 22 22 23 23
52 52 52 51 49 49 48 46 46 45 45 44 44 44 45 45 45 46 46 46 45 45 44 43 42 41 41 39 38 38 38 38 37 37 37 35 34 34 34 34 34 34 34 33 32 32 32 31 30 29 28 27 26 26 26 25 25 25 26 28 28 28 28 28 29 29 30 31 30 30 29 29 26 23 22 18 20 23 23 23 25 26 24 21 21 23 24 24
54 53 53 52 50 49 48 47 46 45 45 45 44 44 45 45 45 46 46 46 45 45 44 43 42 42 41 39 38 38 38 38 36 37 38 35 34 34 33 33 33 34 33 33 33 33 32 32 31 29 28 26 25 25 25 26 25 26 27 29 28 28 29 29 29 29 29 29 28 28 28 27 23 21 21 18 20 23 23 23 24 25 23 19 20 23 25 26
54 54 53 52 51 49 48 47 46 45 45 45 44 44 44 45 45 45 46 45 45 45 44 43 43 42 41 40 39 38 37 37 36 36 38 36 35 34 33 32 32 32 32 32 33 33 32 32 31 29 28 26 25 25 26 26 26 26 28 27 27 28 29 29 29 28 28 27 27 26 25 26 23 22 21 18 19 22 23 23 24 25 22 17 20 24 25 25
55 55 54 53 51 49 48 47 46 45 46 45 44 44 44 44 45 45 45 45 44 44 44 44 43 42 41 40 39 38 37 37 36 36 37 36 35 34 33 32 32 32 32 32 32 32 32 31 30 29 27 26 26 28 29 29 27 26 26 26 27 27 27 27 27 27 27 26 24 24 24 25 26 24 22 18 16 20 23 24 26 25 19 16 21 24 24 24
56 55 54 53 51 49 48 47 46 45 45 45 44 43 43 44 44 44 44 44 44 44 44 44 44 43 42 40 39 38 37 37 36 35 36 36 34 34 33 32 32 32 32 32 32 32 31 30 29 28 27 28 31 32 31 29 28 26 26 27 28 27 26 26 26 26 25 22 20 22 24 25 27 24 20 16 15 21 24 25 27 23 16 17 22 23 23 24
57 55 54 52 50 48 47 47 46 45 45 44 43 42 43 43 43 43 43 44 44 44 44 44 44 43 42 41 40 39 38 38 36 35 36 35 34 34 33 33 32 32 32 32 32 30 29 29 29 29 30 32 32 32 29 27 28 28 29 30 29 27 27 26 24 23 22 18 16 20 23 25 25 21 17 16 18 23 23 25 27 20 15 19 22 23 23 23
56 54 51 49 48 47 47 46 45 44 44 43 42 42 42 42 42 42 42 43 43 44 44 44 43 42 42 41 40 40 39 38 36 35 35 35 34 34 34 34 33 32 32 31 31 30 30 30 31 32 32 32 30 27 26 27 27 28 28 28 27 27 26 24 21 19 19 16 17 21 23 23 22 19 18 19 20 22 22 25 24 17 16 20 21 22 23 23
53 51 48 47 46 46 46 45 44 43 43 42 42 41 41 41 41 41 41 42 42 43 43 43 42 42 41 40 40 41 39 39 37 35 36 36 36 35 34 34 34 33 32 30 30 30 31 32 33 33 31 30 28 27 27 26 25 25 26 24 24 25 22 18 16 17 17 17 19 21 21 21 19 20 21 19 20 21 23 24 20 14 16 19 20 21 23 23
50 47 45 44 44 44 43 42 42 41 41 41 41 40 40 40 40 40 40 41 41 42 43 42 42 41 40 40 41 40 39 37 36 35 36 37 36 34 34 34 34 33 32 30 30 30 32 32 31 30 28 27 26 26 26 25 24 25 24 22 21 19 15 15 17 18 18 17 19 20 19 19 19 21 21 19 20 21 22 23 17 14 17 19 19 21 22 22
46 43 42 41 41 41 40 40 40 40 40 40 40 39 38 38 39 39 40 40 40 40 41 41 41 40 39 39 40 39 37 35 35 36 36 36 35 34 34 34 33 33 32 31 31 32 31 30 28 26 23 21 22 23 23 23 24 24 22 19 17 14 14 17 18 17 17 17 18 19 18 18 18 20 21 20 20 21 21 20 15 14 18 19 18 19 20 20
41 40 38 38 38 38 38 38 39 39 39 39 38 37 36 37 38 39 39 40 40 39 40 40 40 39 38 38 38 38 35 33 35 37 35 34 33 33 33 33 33 32 32 31 31 30 29 28 26 24 20 20 22 22 23 24 24 23 20 17 17 19 19 19 19 18 19 18 18 17 14 13 15 17 19 19 19 20 19 17 15 16 18 18 16 15 16 18
37 36 35 35 36 36 37 37 38 38 39 38 37 35 35 36 37 39 39 39 39 39 39 38 38 37 36 37 37 36 34 32 35 36 34 33 32 32 33 32 32 32 31 30 28 28 27 25 24 25 25 26 26 25 25 27 25 20 16 15 18 22 21 20 21 22 22 19 15 13 10 9 12 14 16 18 19 18 17 16 16 17 17 16 14 13 14 16
34 33 34 34 35 35 36 37 38 38 38 38 37 35 34 35 37 38 38 38 39 39 39 37 37 35 35 35 35 35 34 34 36 35 33 33 32 32 32 31 31 30 29 29 28 27 26 25 24 26 29 30 30 29 27 25 20 16 15 17 18 19 20 19 18 19 22 21 15 11 10 9 12 14 14 16 17 17 17 17 16 16 15 15 15 15 15 16
32 33 34 34 35 35 36 37 38 38 38 37 37 35 35 36 37 37 37 38 39 39 38 37 36 34 34 34 33 34 36 37 37 36 34 33 32 31 31 30 30 30 30 29 29 28 27 28 29 30 31 31 29 25 22 18 16 17 19 21 21 22 23 21 20 21 22 22 17 13 12 10 13 16 15 15 16 17 18 18 16 15 15 16 17 17 18 18
32 33 33 34 34 35 36 36 37 37 38 38 37 36 35 36 37 37 37 37 37 37 37 36 34 33 33 33 34 35 36 38 39 37 35 34 33 31 30 30 29 29 30 29 29 28 28 30 31 31 29 26 24 22 19 18 19 23 25 26 27 27 26 25 24 23 22 22 20 17 14 9 12 15 16 16 16 17 18 17 17 15 16 18 20 19 19 20
32 32 33 33 33 34 34 34 35 37 37 38 37 36 36 36 37 36 36 36 35 35 36 34 33 33 32 33 35 36 36 38 38 38 37 36 35 33 32 30 29 28 28 27 28 29 30 31 30 27 23 22 22 22 22 23 24 27 28 28 27 26 26 26 24 23 23 22 19 17 15 13 10 12 16 15 15 16 16 17 18 18 18 20 22 21 21 22
32 32 31 32 31 32 33 33 34 36 37 38 38 37 37 37 36 35 34 33 33 34 34 31 31 32 32 33 35 35 35 36 37 38 38 38 37 36 34 32 30 27 26 27 29 31 32 30 26 22 21 22 24 24 25 26 27 27 27 26 25 25 25 25 22 22 24 20 16 17 17 16 12 10 14 14 15 17 16 17 18 19 21 22 23 22 22 23
31 30 29 29 30 31 32 32 33 34 36 37 37 37 37 36 35 33 31 30 30 31 30 29 30 29 31 34 35 34 34 35 37 37 37 37 37 36 35 33 31 28 28 30 31 31 29 25 22 22 24 25 27 27 26 28 30 29 26 25 26 27 26 24 21 20 20 16 16 18 18 18 15 11 11 14 16 17 17 18 19 19 20 22 24 23 22 23
28 27 26 27 29 30 31 31 30 32 35 37 38 38 37 36 34 32 30 29 29 31 29 28 28 27 30 34 33 32 32 32 34 35 35 35 34 34 33 32 32 32 33 33 32 28 23 20 22 25 27 28 27 26 26 29 31 30 28 27 28 28 27 24 22 20 18 16 17 20 20 22 20 14 12 14 16 17 18 19 20 20 20 22 24 24 24 23
26 25 25 25 27 30 30 29 29 32 35 38 39 37 36 35 33 31 30 29 30 30 29 28 28 29 32 33 31 30 30 29 30 32 33 32 32 32 31 31 32 33 34 33 32 28 23 23 27 29 29 27 26 26 28 30 30 30 30 30 29 28 27 24 24 22 20 20 20 22 23 24 23 18 13 14 16 18 19 20 20 20 21 23 24 24 24 24
25 24 24 24 25 27 28 29 31 33 37 39 38 36 35 33 32 31 30 30 29 29 29 29 29 29 32 32 30 29 29 28 27 28 29 29 31 31 30 30 31 32 32 31 31 28 27 29 31 30 28 27 25 25 26 29 30 31 31 32 30 28 26 24 23 21 21 21 21 22 24 25 24 17 11 12 15 16 19 20 20 20 21 23 22 22 23 23
24 23 23 23 23 24 26 29 31 35 38 38 36 35 33 32 32 31 31 30 28 28 30 29 26 27 30 28 27 28 28 27 26 27 28 30 30 30 30 29 29 29 29 31 31 29 30 32 31 30 29 28 28 26 26 29 31 31 30 30 30 29 25 23 23 23 21 22 22 24 26 27 25 19 14 14 15 16 19 20 20 19 20 20 17 18 19 19
22 23 22 22 22 23 26 29 32 36 37 36 35 33 31 30 31 31 30 29 27 28 30 28 26 26 26 24 25 27 24 23 27 28 28 30 29 28 29 29 28 29 30 31 30 29 30 32 31 31 31 31 30 29 29 30 31 31 29 28 30 29 25 23 25 25 24 24 26 28 29 28 25 22 20 20 19 18 19 18 18 18 19 20 18 17 18 19
22 23 22 21 22 24 27 30 32 34 34 33 32 32 31 30 30 30 30 28 27 28 28 27 26 25 23 24 26 25 20 22 29 29 27 28 28 28 28 27 27 28 30 30 28 27 30 30 30 30 31 32 31 30 31 32 33 33 30 28 29 30 28 27 28 30 29 29 31 32 30 28 26 23 23 24 22 19 19 17 17 16 17 21 21 20 21 22
21 22 22 22 24 26 28 30 31 32 31 31 32 33 34 32 31 31 30 28 26 26 26 25 25 24 23 24 23 21 21 25 29 28 27 29 28 28 28 27 27 28 30 30 27 28 31 30 28 30 30 30 30 31 33 33 34 34 30 28 30 32 32 32 33 34 35 34 35 34 29 27 28 25 22 23 23 23 23 20 18 16 16 19 20 19 21 23
20 21 22 23 25 27 29 30 30 30 30 32 35 35 34 32 32 32 29 27 24 22 24 25 24 24 23 21 20 21 23 25 27 28 29 30 29 30 30 29 29 30 32 31 29 29 32 32 31 32 30 28 29 31 33 35 35 34 30 29 32 34 35 36 38 39 39 38 35 30 25 25 28 26 23 23 24 26 25 20 17 17 17 18 19 20 22 24
19 20 22 25 27 28 29 29 29 30 32 34 35 34 32 31 32 31 27 26 24 21 22 24 24 23 21 20 20 21 23 25 27 28 30 32 33 34 34 33 33 33 34 33 30 29 31 33 33 33 31 29 29 31 33 34 33 31 29 30 33 36 36 38 40 41 42 40 30 21 20 21 23 24 24 22 23 25 23 19 17 17 19 19 21 23 24 25
19 21 23 26 28 29 28 28 29 31 34 35 34 34 33 32 31 29 25 25 24 21 20 22 23 22 20 21 21 20 22 24 26 26 28 31 32 32 33 34 34 35 35 33 30 30 32 32 32 32 32 31 30 31 33 33 31 29 29 31 35 37 38 38 38 39 40 36 24 17 19 21 22 26 25 21 20 22 22 20 18 18 20 22 24 25 26 28
20 22 25 27 29 29 28 29 30 33 35 35 35 34 34 33 29 25 23 22 22 21 20 18 19 20 20 21 22 21 23 24 23 22 24 26 28 27 28 31 33 34 34 32 30 31 33 33 33 33 32 32 32 31 32 30 28 27 30 35 37 37 38 38 36 34 32 27 21 18 20 24 26 27 25 22 21 21 21 20 19 19 20 21 23 24 26 27
22 24 26 28 29 28 29 30 32 34 35 35 35 35 34 30 26 24 23 21 22 23 21 18 16 16 18 20 21 22 22 22 20 20 22 24 25 25 26 28 30 31 31 30 29 31 32 32 34 33 33 34 33 30 28 26 23 23 28 35 37 36 36 34 30 27 23 21 21 21 23 27 27 26 24 22 21 21 21 20 19 20 20 21 22 23 24 26
24 25 26 28 29 29 30 32 33 34 33 34 34 34 31 27 25 26 25 24 24 23 21 20 17 13 14 18 19 20 19 17 18 19 20 21 22 22 23 24 25 27 29 29 29 30 30 31 31 31 32 31 28 24 24 24 22 22 28 33 35 33 31 27 23 21 20 20 22 23 25 26 25 24 23 21 20 20 20 21 21 21 22 23 23 23 24 25
25 26 27 28 29 30 31 32 33 33 32 34 34 31 28 27 27 28 27 26 26 24 21 21 18 14 15 18 19 21 19 15 14 17 19 20 19 18 20 21 22 23 25 27 27 27 27 27 28 29 29 26 22 19 22 24 23 24 29 31 28 24 21 20 20 21 22 22 23 24 24 25 24 23 22 21 20 20 20 21 21 21 22 23 24 25 26 26
26 26 27 28 28 30 31 31 32 32 33 34 33 29 29 30 30 30 29 27 26 25 23 20 17 16 19 22 22 22 21 17 15 15 16 18 19 18 18 19 20 21 21 21 23 25 25 25 25 26 26 24 22 21 22 23 23 23 25 25 22 20 19 19 19 21 24 23 23 23 23 24 25 24 22 21 20 20 21 21 21 21 22 23 23 24 25 26
26 27 27 27 29 30 30 30 31 32 33 33 30 30 31 33 34 33 32 31 29 26 24 22 19 19 21 24 25 24 21 19 17 14 13 14 17 18 19 20 20 20 20 21 21 22 23 25 24 24 23 21 20 22 23 24 23 21 21 22 22 22 20 20 19 20 23 25 24 24 25 25 25 24 22 21 21 21 21 22 22 21 21 22 22 23 25 26
27 27 27 27 29 30 30 30 30 31 31 29 28 31 35 35 36 35 33 32 31 27 26 26 24 22 23 25 26 26 22 18 16 14 12 12 15 20 23 24 24 23 22 22 23 22 23 25 25 24 24 21 21 22 23 22 22 21 23 26 27 25 22 21 19 18 19 23 25 26 26 26 25 25 23 21 22 22 22 23 22 21 21 21 23 25 26 28
27 27 27 27 28 29 30 30 31 30 28 27 29 33 36 37 38 37 34 33 32 30 29 28 25 23 24 26 26 26 23 18 14 14 13 13 16 21 24 25 26 27 26 24 23 23 24 26 26 25 25 23 23 23 20 19 20 22 25 28 29 28 27 25 23 22 20 21 24 25 25 25 24 23 23 22 22 21 20 21 22 22 23 23 24 26 26 27
26 26 26 27 27 28 29 29 29 27 26 28 32 35 35 37 40 38 34 34 33 32 31 29 25 24 26 29 28 26 24 21 18 17 17 17 20 22 23 24 26 28 29 27 26 27 27 28 27 26 25 23 21 21 19 16 16 21 25 25 26 27 28 26 24 23 23 22 23 25 25 25 25 24 24 22 20 18 17 18 19 21 21 22 23 25 25 24
26 24 23 25 27 28 28 28 27 27 29 33 37 37 33 36 41 40 36 36 36 34 34 30 25 27 31 31 31 29 27 25 24 23 22 21 22 22 21 23 25 28 29 28 30 31 30 29 29 27 26 26 25 24 23 19 15 20 27 28 27 29 29 27 24 22 23 23 24 25 24 25 25 24 23 21 19 17 17 16 17 18 18 18 20 22 23 23
26 23 22 24 26 27 28 28 29 31 35 38 40 39 34 34 40 41 37 38 37 35 34 30 27 31 33 32 31 29 29 29 29 29 28 26 25 24 23 23 25 28 31 30 31 32 31 31 31 29 27 29 30 27 26 25 20 24 32 34 32 32 31 27 24 24 25 26 26 26 25 25 25 23 22 19 17 17 17 17 17 17 17 16 17 19 21 22
25 22 22 25 26 27 30 31 34 36 39 41 42 42 38 36 39 40 37 37 37 35 34 32 30 31 32 31 30 29 29 30 30 30 30 28 27 27 26 25 25 27 30 31 30 29 31 33 33 32 31 32 33 29 26 29 27 27 33 38 37 35 32 29 27 27 27 28 29 28 28 26 25 24 23 21 19 18 18 19 19 18 16 15 17 19 21 22
24 20 23 26 27 29 32 34 37 39 42 43 43 44 42 38 38 38 36 35 36 36 35 33 31 31 32 31 30 30 31 31 30 30 30 29 28 29 28 27 26 28 29 31 30 28 30 33 33 34 34 34 35 32 28 29 30 29 31 37 40 38 34 32 31 30 30 30 30 30 30 28 26 25 24 21 20 19 18 18 18 18 17 17 19 21 21 21
22 20 24 27 29 31 33 35 37 39 41 42 42 42 41 38 36 36 34 31 32 33 34 34 32 31 32 32 31 31 32 32 32 31 29 28 28 29 29 29 28 29 29 30 31 30 30 31 31 32 34 33 34 35 32 30 32 31 30 32 37 38 37 36 34 32 32 32 31 31 31 29 28 27 24 22 21 20 20 18 16 16 17 19 20 21 21 21
21 22 26 29 30 32 33 35 36 36 38 38 38 37 36 33 30 30 30 28 27 28 30 32 32 32 32 33 33 32 30 31 32 31 29 29 27 27 29 31 30 30 31 31 32 32 31 32 31 31 33 33 34 36 35 34 34 33 31 29 31 33 35 36 34 32 32 31 30 31 32 31 30 28 25 23 22 20 20 19 17 17 17 17 18 20 21 21
21 25 28 29 29 31 31 32 32 31 32 31 31 30 29 27 25 26 27 26 24 24 25 29 32 34 33 33 34 33 30 30 32 32 31 28 26 26 27 30 32 32 32 33 34 34 33 33 33 32 32 33 34 36 37 37 36 36 34 32 31 32 33 33 32 32 31 30 29 30 30 29 28 26 24 22 22 22 22 21 20 20 18 17 17 19 21 21
22 26 29 28 29 29 30 30 28 27 26 26 26 26 25 24 23 24 25 25 22 22 24 28 32 34 33 31 33 35 34 32 33 35 34 31 29 28 26 27 31 33 35 36 36 36 36 36 35 34 33 31 31 34 37 39 39 39 37 35 34 33 33 34 33 32 32 31 30 30 30 28 26 26 25 21 18 17 18 19 21 22 21 19 18 19 20 20
24 26 28 29 28 28 27 26 26 25 24 24 24 24 24 24 23 24 25 23 22 22 24 26 28 31 32 31 33 35 35 34 34 35 35 34 33 32 30 28 28 30 33 37 39 38 37 37 36 35 33 33 31 31 34 39 41 41 39 37 37 35 34 35 35 34 33 32 31 30 30 28 27 24 20 17 13 12 12 15 19 22 22 20 19 18 19 19
24 25 28 29 27 26 25 24 25 24 23 23 23 23 23 24 24 24 24 23 23 23 24 25 26 27 29 30 31 32 32 32 33 34 34 34 34 33 33 33 31 29 29 33 39 42 41 39 38 36 35 35 34 32 33 36 40 42 41 38 37 36 35 35 35 34 33 32 32 31 30 29 28 23 18 16 16 17 17 16 18 20 20 19 18 18 18 19
23 25 28 28 26 25 25 25 25 23 21 21 22 23 23 24 24 24 23 22 22 22 23 23 24 25 25 26 27 27 27 27 28 30 32 32 32 31 31 32 33 32 31 30 33 39 42 43 42 40 38 37 36 35 34 34 36 40 42 41 39 36 35 35 34 34 34 33 33 33 31 29 29 28 26 24 22 21 21 20 19 19 20 19 18 17 17 19
Wind_Direction
272 272 272 272 272 271 270 269 266 264 260 256 253 252 251 250 249 247 246 245 243 242 241 241 240 240 239 238 237 237 236 236 235 234 233 232 230 230 230 229 230 231 232 233 234 236 237 238 239 240 240 240 239 238 238 238 239 237 231 228 228 227 229 234 235 237 238 239 241 242 244 245 247 248 249 253 260 267 263 256 257 261 263 266 270 275 277 279
272 272 272 271 271 271 270 269 267 264 261 257 253 251 251 250 248 247 245 244 242 241 239 239 238 238 238 237 236 235 235 235 234 233 233 232 230 230 230 229 230 230 231 232 233 235 236 237 238 239 240 240 239 239 238 238 238 233 226 225 229 231 234 236 238 240 242 242 243 243 244 245 246 248 250 255 261 262 259 259 261 263 266 270 273 275 276 278
271 271 272 271 271 271 270 269 267 265 262 258 254 251 250 249 248 246 244 243 242 240 238 237 236 236 236 236 235 234 234 234 233 232 233 232 230 230 230 230 230 230 231 232 233 235 236 238 239 240 239 240 239 239 239 238 236 230 225 227 231 234 236 238 239 241 242 244 245 245 246 247 247 248 251 254 257 253 252 257 261 263 266 269 273 275 276 277
271 272 272 271 271 270 269 268 266 265 262 258 254 251 249 248 247 245 243 242 241 239 237 235 235 234 234 234 234 233 233 233 232 232 233 232 231 231 230 230 230 230 231 232 234 235 236 238 239 240 240 240 239 239 240 238 234 229 226 230 233 234 236 239 240 241 242 244 246 247 248 250 249 249 252 249 248 249 250 254 259 261 264 269 274 277 278 279
272 272 272 272 271 270 268 267 265 263 261 257 253 250 248 247 246 244 242 240 239 238 237 235 234 233 233 232 233 232 232 231 231 232 233 232 231 231 231 230 230 231 232 233 234 235 236 237 238 239 240 241 240 240 239 235 231 226 226 231 233 235 237 238 239 241 243 245 247 250 251 252 251 248 248 246 245 249 251 253 258 262 266 273 278 280 279 278
272 272 272 271 270 269 267 265 263 261 259 256 252 249 247 246 245 243 241 239 238 237 235 234 233 232 232 231 232 232 231 231 230 231 232 231 231 231 230 230 231 231 232 233 234 235 236 237 238 238 238 239 239 237 234 232 229 224 228 234 236 238 240 239 240 242 244 247 249 252 255 255 253 245 242 241 244 250 253 255 259 262 267 274 278 278 276 277
272 272 272 271 269 268 265 263 261 258 256 253 250 248 246 245 244 242 240 238 236 235 234 233 232 232 231 230 231 231 230 231 230 229 231 230 230 231 230 230 231 231 232 233 234 235 235 237 237 237 237 236 234 232 230 229 225 224 231 236 237 239 241 242 243 244 244 245 247 251 255 256 253 246 242 239 242 251 256 258 260 262 269 277 274 272 274 278
273 272 272 270 268 266 263 260 258 255 253 251 247 246 245 244 243 241 240 237 235 234 233 232 231 231 230 229 230 230 230 229 228 228 230 230 229 230 231 231 231 231 232 232 233 234 235 235 235 236 236 232 231 230 227 224 219 223 231 234 237 239 241 244 245 246 246 246 248 249 251 253 252 248 248 244 242 251 256 260 262 265 274 279 270 270 274 277
273 272 271 269 267 264 260 257 255 252 250 248 245 244 243 243 242 240 239 236 234 233 233 231 230 229 229 228 229 229 229 229 228 227 229 229 229 229 230 231 231 231 232 232 234 235 235 235 234 233 231 229 230 230 230 227 220 221 227 229 232 234 238 242 244 246 248 249 250 252 250 250 252 252 253 249 243 250 255 260 264 269 278 276 271 272 274 276
273 272 270 268 264 261 256 254 252 249 247 245 242 241 241 241 240 239 237 235 233 232 232 231 228 227 228 227 228 228 228 229 227 226 227 227 227 227 228 229 229 230 231 232 233 233 232 231 230 229 229 230 232 233 234 231 223 222 226 229 231 232 235 238 242 247 251 251 245 247 251 253 256 258 255 247 244 250 256 261 266 273 279 274 274 276 277 278
273 271 268 264 261 257 253 251 249 246 243 241 239 239 239 238 238 237 236 234 232 231 230 230 227 225 226 226 226 226 227 228 226 225 226 226 225 225 226 227 227 228 229 230 231 229 228 228 228 228 229 232 233 233 233 231 228 229 232 235 236 235 237 239 244 247 249 248 238 238 244 249 255 257 254 251 252 255 259 263 269 278 278 274 276 278 278 277
271 268 264 260 256 253 250 248 246 243 240 237 236 237 237 236 236 235 234 233 231 230 229 228 225 223 223 224 224 224 225 226 225 224 225 225 224 224 225 225 226 226 227 227 226 225 226 227 229 230 231 232 232 230 230 228 228 232 235 237 238 239 241 241 240 240 239 239 239 239 240 242 245 248 252 254 256 257 261 265 272 280 275 274 277 277 277 278
269 264 260 255 252 249 247 245 242 239 236 234 234 235 235 235 234 234 233 232 231 229 227 226 224 220 220 221 222 222 222 223 222 222 224 225 223 223 223 223 224 224 224 224 222 222 224 227 230 232 233 233 232 232 231 227 225 228 230 232 235 238 237 230 228 229 231 235 240 241 240 239 239 243 247 248 251 254 259 264 271 276 273 274 275 277 280 282
264 260 255 251 248 246 244 241 238 234 232 231 232 233 233 233 233 233 232 231 230 227 225 224 222 218 217 219 220 220 219 218 219 218 220 222 221 220 221 221 221 221 220 221 221 223 224 226 227 228 228 228 229 230 228 223 223 225 226 227 226 221 219 221 223 224 228 231 235 237 239 239 238 241 244 245 248 252 257 262 267 269 271 274 276 278 282 284
259 254 250 246 244 242 239 236 233 231 230 229 230 231 231 232 232 231 231 229 228 226 223 221 220 216 215 216 216 217 214 212 215 214 213 216 216 216 217 217 216 216 216 217 220 222 224 224 223 218 211 212 218 220 218 217 220 225 226 223 217 215 216 219 220 221 225 226 227 230 233 235 236 240 244 247 250 253 259 264 266 265 267 274 278 279 282 284
253 248 244 241 239 236 233 231 229 228 228 227 228 229 230 231 230 230 229 228 226 223 220 218 217 214 212 213 212 213 207 202 209 210 207 209 210 211 212 212 212 212 213 214 216 218 218 219 218 212 203 204 210 210 211 215 217 217 213 206 211 217 216 214 217 220 223 222 217 215 219 225 230 236 243 247 250 255 263 266 263 261 262 269 275 275 276 279
246 241 238 236 234 232 230 229 227 227 226 226 227 227 228 229 228 228 227 225 223 221 217 216 215 211 209 209 208 209 202 198 206 206 203 205 206 208 210 209 209 208 208 209 210 211 210 207 207 208 208 208 209 207 210 213 208 202 196 196 203 211 210 207 207 214 222 219 205 195 209 225 229 233 241 246 250 256 264 265 264 263 265 271 276 274 272 271
239 235 233 232 230 229 228 227 227 225 225 225 225 225 226 226 226 225 224 223 221 218 215 213 212 209 207 206 205 205 200 198 203 203 200 202 203 204 206 206 205 204 205 204 204 205 204 201 201 205 209 210 207 207 210 205 197 195 196 196 198 203 206 201 196 203 215 215 205 196 202 225 238 236 238 243 250 256 261 266 272 275 278 281 280 278 274 273
234 232 231 230 229 228 228 227 226 226 224 223 223 223 223 223 223 222 221 219 217 215 213 211 210 207 205 204 202 203 200 198 202 202 200 200 200 200 201 201 201 201 203 203 202 203 203 205 207 208 209 208 208 210 207 200 205 210 207 204 205 206 206 205 204 207 212 213 212 205 194 213 245 246 239 236 246 255 263 273 281 285 285 284 282 280 277 276
231 231 230 229 228 228 228 227 226 228 225 220 220 220 220 220 219 218 217 216 215 213 212 209 208 206 203 201 201 201 199 198 200 202 201 201 201 200 199 198 198 198 199 200 201 203 205 208 211 212 210 209 212 213 208 205 212 218 217 215 214 211 209 212 213 213 215 215 218 216 209 213 230 252 253 244 248 257 264 274 279 281 279 278 280 280 279 278
230 231 231 229 228 228 228 227 227 228 223 217 217 217 217 217 215 214 215 215 214 212 211 208 206 204 201 200 200 200 198 196 198 200 202 203 203 203 201 199 198 196 196 198 202 205 207 208 207 207 208 210 213 213 209 209 210 212 215 215 210 207 210 214 214 214 217 217 225 232 234 232 226 242 260 261 264 265 265 268 270 273 274 275 277 278 280 280
231 232 231 228 228 227 228 228 227 224 219 213 213 214 213 213 213 212 212 212 213 212 209 204 202 202 200 199 199 198 196 196 197 198 199 201 203 203 202 201 199 197 198 203 206 208 208 205 199 200 205 208 211 209 206 207 208 206 208 208 200 197 204 209 210 214 218 223 238 245 250 255 246 229 242 259 265 266 267 269 269 269 271 275 279 280 281 282
232 231 228 227 228 228 229 229 225 219 214 210 211 211 209 209 209 208 208 207 208 207 201 196 195 196 199 199 196 194 194 196 199 198 198 199 200 201 202 202 201 201 204 208 210 210 207 200 197 200 203 206 207 205 201 205 209 207 203 198 191 192 199 204 211 218 220 223 236 246 252 257 253 236 231 244 254 263 269 270 271 271 271 274 277 280 281 283
231 228 227 229 229 229 229 225 220 215 210 207 208 208 205 205 205 204 204 202 203 201 193 189 189 192 197 197 191 189 191 193 198 199 198 196 197 198 200 201 201 204 207 209 212 209 201 197 198 200 202 204 205 202 202 206 210 209 204 196 194 198 202 205 215 223 226 225 228 238 245 251 253 247 241 242 246 258 265 267 270 272 275 277 277 279 282 283
229 229 231 233 231 228 223 218 215 211 206 205 206 204 202 202 202 201 200 198 199 196 188 185 188 194 198 193 184 184 187 190 193 198 197 196 197 196 198 200 200 203 205 206 209 203 197 200 201 201 200 200 203 202 205 209 211 211 207 202 202 206 207 210 216 223 229 233 236 243 247 252 257 259 255 248 250 260 263 264 267 268 270 275 281 287 288 286
229 234 236 234 230 224 215 212 211 208 203 203 203 200 199 201 201 200 198 196 196 193 187 184 185 195 200 191 183 184 187 190 193 195 195 195 196 195 196 199 199 201 202 203 204 198 199 202 202 203 202 200 201 198 201 208 211 214 211 205 204 205 208 214 218 224 229 233 240 247 248 250 258 267 268 256 258 270 271 264 263 264 265 269 280 293 295 292
233 239 236 232 227 218 210 208 208 204 200 200 200 197 197 200 201 200 198 196 194 193 190 185 182 193 202 196 189 188 187 192 196 197 198 198 196 195 196 196 197 202 203 203 201 197 201 204 202 204 206 204 203 199 200 205 210 215 213 207 206 206 209 215 219 223 225 226 232 241 246 250 258 264 264 261 261 268 272 268 263 265 265 266 270 278 284 286
237 236 231 228 221 211 205 205 203 199 198 198 197 195 196 198 200 201 199 195 194 196 194 189 186 193 202 200 194 191 191 198 198 197 201 203 198 196 198 196 197 202 205 205 200 196 202 206 204 206 209 210 207 203 205 208 210 213 211 208 209 207 207 214 219 220 221 223 227 234 243 253 259 258 254 258 261 262 268 269 264 264 264 266 270 271 276 282
236 228 223 219 211 203 201 201 198 195 194 194 193 194 195 196 198 199 198 196 194 196 197 194 192 196 202 203 200 199 202 205 202 196 200 206 203 200 201 199 199 203 207 205 198 197 201 202 203 207 210 213 211 207 209 211 212 212 208 205 209 209 208 212 217 218 222 225 226 233 244 254 260 259 253 255 262 265 268 266 257 255 256 261 267 268 270 276
230 220 215 209 202 198 197 196 194 190 190 192 192 193 194 195 197 197 197 197 193 195 199 198 197 199 203 205 206 208 209 211 209 202 200 205 205 204 204 202 201 205 208 205 197 197 202 201 201 203 205 210 212 210 211 212 214 214 210 205 207 210 211 213 216 219 223 227 230 236 248 257 261 262 257 256 262 265 265 259 249 248 251 256 260 262 267 273
220 212 206 200 197 195 193 191 189 187 189 192 192 192 193 195 197 196 197 197 192 192 199 199 200 200 198 199 203 207 209 213 213 206 203 207 207 205 206 205 205 208 210 207 198 197 205 207 205 204 202 204 210 212 213 214 215 215 213 210 211 212 213 214 217 222 225 230 235 237 241 250 256 259 258 255 256 257 256 251 244 244 249 253 257 261 269 274
210 205 199 195 193 191 189 187 184 186 190 191 190 190 192 194 196 196 197 195 191 190 194 198 201 200 196 197 200 202 207 213 214 206 204 211 212 208 208 209 209 212 214 210 203 202 208 210 210 209 206 206 210 214 216 217 217 217 214 212 213 214 215 217 219 224 229 235 239 232 234 245 252 255 257 252 248 250 252 253 248 245 247 250 255 260 266 270
203 200 195 191 190 188 185 184 185 188 191 190 190 190 191 191 191 192 195 193 189 187 186 188 195 197 194 195 197 198 204 210 211 206 202 209 214 209 207 209 209 213 217 213 207 207 211 213 214 213 212 212 212 215 220 221 221 221 214 210 212 215 217 219 221 226 232 239 236 226 236 247 249 252 255 251 247 248 250 253 253 251 251 253 257 262 266 267
198 196 193 189 187 185 183 184 188 190 191 190 190 191 191 186 182 186 190 188 187 186 182 180 184 190 193 192 194 200 206 209 206 202 200 205 211 208 206 208 207 209 213 212 209 210 212 214 217 217 217 218 217 219 224 225 226 224 213 209 212 216 219 221 223 229 233 235 230 224 233 242 245 252 255 252 252 253 253 254 255 256 259 261 264 267 269 269
195 192 190 189 187 185 185 187 190 191 190 190 191 192 187 178 178 184 182 179 182 181 176 176 174 177 192 189 187 195 205 209 208 203 199 201 206 208 207 208 208 207 209 208 207 209 213 215 218 220 224 226 226 227 226 222 221 217 209 210 213 217 223 224 223 227 229 228 225 223 230 237 242 249 252 252 254 255 256 257 258 260 264 267 270 271 271 272
192 190 190 190 187 187 187 189 190 190 189 190 192 189 178 174 181 184 178 176 182 181 173 171 162 159 180 181 177 187 189 187 200 205 200 195 196 199 203 205 206 207 210 210 206 206 210 214 218 220 224 227 225 222 219 214 214 214 210 211 214 214 220 222 222 225 228 230 228 224 228 235 240 244 247 250 252 252 255 260 262 263 266 271 274 275 276 277
191 190 190 189 188 189 190 189 190 191 191 192 191 182 173 178 183 181 176 174 179 182 176 166 156 158 172 171 170 181 181 174 185 197 197 192 188 190 196 199 201 202 206 209 209 208 207 207 215 220 220 222 219 216 219 216 215 215 209 204 204 203 207 211 215 223 226 227 228 230 233 238 243 246 248 250 252 254 256 260 263 265 268 272 274 275 276 277
191 192 191 188 188 190 190 190 191 192 193 193 189 180 177 183 185 179 173 170 172 174 169 162 157 162 172 172 172 179 181 183 187 185 183 182 181 186 189 191 196 197 199 202 205 208 204 198 205 213 211 211 211 214 222 223 220 214 200 195 201 205 208 210 211 220 226 225 224 228 234 238 243 247 249 250 252 254 256 259 262 264 265 266 268 271 273 274
192 193 191 189 189 190 190 190 191 194 194 191 185 182 182 187 187 179 174 173 170 164 163 166 163 164 172 172 177 183 182 184 188 182 178 177 180 188 190 190 191 190 195 200 199 204 205 198 199 204 202 201 206 209 214 217 218 210 196 197 206 209 210 214 215 219 227 230 229 231 236 239 244 248 250 250 249 250 253 258 261 263 263 262 264 268 270 272
191 191 192 190 189 190 190 190 191 193 192 186 184 185 186 188 188 180 176 178 173 163 165 174 174 173 174 170 175 180 175 176 186 189 191 191 190 194 195 194 192 189 193 194 190 197 206 203 200 202 201 203 209 210 207 207 214 217 208 205 210 213 216 218 218 218 219 225 233 237 241 245 248 251 252 249 248 250 253 257 260 262 264 265 266 267 269 272
188 189 192 192 190 190 191 191 190 189 185 180 180 180 181 187 185 178 175 178 176 170 172 181 183 180 176 172 174 177 174 177 189 200 205 201 195 195 196 196 194 193 195 192 186 192 201 201 199 200 199 201 209 212 208 203 212 221 218 214 215 218 220 219 219 223 223 222 229 235 240 246 249 251 252 251 251 254 257 260 262 262 265 271 270 266 266 272
185 183 188 192 192 192 192 190 186 179 174 172 172 170 175 185 184 178 177 178 179 178 177 181 183 181 178 176 176 178 180 183 189 200 209 205 199 200 202 200 195 195 197 197 195 196 197 196 196 199 198 197 206 212 205 196 200 209 211 212 215 217 219 218 216 221 229 231 233 236 240 245 249 252 255 257 257 259 262 264 265 265 270 278 277 268 266 272
176 174 180 186 189 190 187 182 173 167 166 168 169 169 176 187 184 180 180 181 182 181 179 177 177 181 183 183 181 182 186 189 191 197 204 205 202 203 208 208 201 196 195 197 202 201 198 196 197 199 197 196 206 214 206 200 199 202 207 210 210 212 217 219 216 219 229 236 238 240 243 246 250 253 256 259 258 259 261 262 265 271 274 276 276 273 272 274
159 166 175 177 178 177 173 168 163 163 167 170 171 174 181 188 185 181 181 184 185 183 178 175 178 184 190 192 191 189 190 193 194 197 203 207 205 203 207 210 207 201 196 196 200 201 200 201 200 200 199 197 204 210 204 204 206 204 207 209 208 209 212 214 216 220 229 237 240 239 240 242 246 251 254 257 259 262 262 262 267 271 270 269 271 274 275 277
149 164 171 167 167 165 162 161 163 167 170 172 175 180 185 189 186 183 184 188 191 189 183 179 181 188 194 200 202 197 195 197 198 201 206 209 208 204 204 207 207 204 200 199 201 200 203 206 204 204 204 201 203 207 203 204 210 209 208 210 210 210 210 213 218 222 227 234 238 238 238 239 243 246 251 256 259 260 262 266 272 268 260 261 268 271 273 276
149 167 167 161 161 161 160 163 168 172 173 175 179 184 188 190 188 186 188 192 197 198 196 192 191 193 196 203 210 209 205 205 206 209 211 212 212 209 205 207 209 207 204 203 205 205 206 209 208 209 211 207 204 208 208 208 211 211 209 211 214 215 216 219 222 225 227 230 234 238 240 241 243 246 251 257 259 260 262 268 274 269 260 260 262 263 268 272
151 164 164 162 162 161 163 167 172 174 175 178 182 186 190 192 191 192 195 200 203 203 204 204 202 201 199 203 212 217 214 212 213 215 214 212 215 216 212 211 213 212 209 207 209 210 210 213 213 212 213 211 207 208 211 212 213 213 211 212 216 217 219 221 223 226 229 231 236 240 243 246 249 251 254 256 258 259 261 263 266 265 259 257 257 258 263 268
156 164 163 162 162 161 166 171 173 175 178 180 183 186 190 192 195 201 206 210 208 203 204 205 205 207 207 206 210 215 218 218 219 220 218 216 218 222 220 217 217 217 215 212 211 213 213 216 219 219 218 217 213 210 212 213 215 218 218 216 216 217 219 221 224 228 231 235 239 242 246 250 252 253 255 258 258 256 255 256 257 257 254 254 258 260 260 264
158 164 163 161 162 165 170 172 171 174 179 181 183 187 190 190 196 205 210 211 209 202 203 206 206 209 213 212 212 214 217 220 223 224 225 225 224 224 223 221 220 220 219 217 215 215 215 216 219 223 224 224 221 216 215 216 216 219 221 221 220 220 220 222 224 229 233 237 240 244 248 249 250 253 254 252 251 249 250 251 250 251 253 256 260 261 260 263
157 163 163 161 164 168 170 171 170 173 178 180 181 186 190 190 194 202 205 206 204 201 202 207 209 211 214 214 214 216 219 223 226 228 229 230 229 227 225 223 223 223 222 220 217 217 218 219 221 225 228 230 229 224 220 219 219 220 221 222 222 223 223 223 225 230 236 240 242 245 247 248 251 252 240 228 232 245 253 252 247 247 252 255 256 259 260 263
158 161 162 161 163 165 166 169 170 171 177 181 182 185 190 192 196 202 203 201 201 203 204 208 211 213 215 215 215 217 221 225 228 231 232 233 233 232 229 227 229 231 230 225 220 219 219 221 224 226 228 230 231 229 226 223 222 224 224 224 224 225 224 224 227 231 237 240 242 246 249 250 250 246 233 234 251 259 257 253 248 248 250 252 252 254 258 261
155 158 160 157 159 163 165 167 169 171 176 182 185 188 191 193 197 202 204 203 203 204 206 210 213 215 217 219 219 220 222 226 230 233 234 235 234 234 233 230 230 233 235 233 228 223 221 222 224 226 228 233 235 234 232 227 224 224 226 226 227 227 227 228 232 235 238 239 241 245 249 249 248 247 250 254 257 257 255 248 242 243 245 248 251 252 253 257
Height
5730 5730 5731 5731 5731 5732 5732 5733 5734 5735 5736 5737 5738 5740 5741 5743 5745 5746 5748 5750 5752 5754 5757 5759 5761 5763 5765 5768 5770 5772 5774 5776 5778 5781 5782 5782 5785 5787 5788 5790 5792 5794 5796 5798 5800 5802 5803 5805 5806 5809 5810 5811 5813 5814 5816 5817 5819 5821 5822 5823 5824 5823 5823 5825 5826 5826 5827 5827 5828 5829 5830 5832 5833 5834 5836 5837 5837 5839 5839 5838 5838 5838 5838 5838 5838 5840 5840 5839
5724 5725 5725 5725 5726 5727 5727 5728 5729 5730 5731 5732 5733 5735 5736 5738 5740 5741 5743 5745 5747 5749 5752 5755 5757 5759 5761 5764 5766 5768 5770 5772 5775 5777 5777 5779 5782 5783 5785 5787 5789 5791 5793 5795 5797 5799 5800 5802 5804 5806 5807 5808 5810 5811 5813 5814 5817 5818 5819 5820 5820 5820 5821 5823 5824 5825 5826 5826 5827 5827 5828 5830 5831 5831 5833 5835 5835 5837 5837 5836 5836 5836 5836 5836 5837 5838 5837 5837
5719 5719 5719 5720 5720 5721 5722 5723 5723 5724 5725 5727 5728 5729 5731 5733 5735 5736 5738 5740 5743 5745 5748 5750 5752 5755 5757 5760 5762 5764 5766 5769 5771 5772 5772 5776 5778 5779 5782 5784 5786 5788 5790 5792 5794 5796 5797 5799 5801 5803 5804 5805 5807 5809 5810 5812 5814 5815 5816 5817 5817 5818 5820 5821 5821 5823 5823 5823 5825 5825 5826 5828 5829 5829 5831 5833 5834 5834 5835 5834 5833 5834 5834 5835 5835 5835 5835 5835
5713 5713 5713 5714 5715 5715 5716 5717 5718 5719 5720 5721 5723 5724 5726 5727 5729 5731 5733 5735 5738 5741 5744 5746 5748 5750 5753 5756 5758 5760 5762 5765 5767 5767 5769 5773 5774 5776 5778 5780 5782 5784 5787 5789 5791 5793 5795 5797 5798 5800 5801 5803 5804 5806 5808 5810 5811 5812 5813 5814 5814 5816 5818 5819 5819 5820 5821 5821 5822 5823 5824 5826 5827 5828 5828 5831 5832 5832 5832 5832 5832 5832 5832 5833 5833 5833 5833 5833
5706 5707 5707 5708 5709 5709 5710 5711 5712 5714 5715 5716 5717 5719 5721 5722 5724 5726 5728 5730 5734 5737 5739 5741 5743 5746 5749 5752 5754 5756 5758 5760 5762 5764 5766 5769 5771 5773 5775 5777 5779 5781 5783 5786 5788 5790 5792 5793 5795 5797 5799 5800 5802 5804 5806 5807 5808 5808 5809 5811 5811 5813 5815 5816 5817 5818 5818 5819 5820 5821 5822 5823 5825 5826 5826 5828 5829 5829 5830 5830 5830 5829 5831 5832 5831 5830 5830 5830
5700 5701 5701 5702 5702 5703 5704 5706 5707 5708 5709 5711 5712 5714 5715 5717 5719 5721 5723 5726 5729 5732 5734 5736 5738 5741 5744 5747 5749 5752 5754 5756 5758 5760 5762 5765 5767 5769 5771 5773 5775 5778 5780 5782 5784 5786 5788 5790 5792 5794 5796 5797 5800 5802 5803 5804 5805 5805 5806 5808 5809 5810 5812 5813 5814 5815 5816 5817 5818 5819 5820 5821 5823 5824 5824 5826 5827 5827 5828 5828 5827 5827 5829 5830 5829 5828 5827 5829
5694 5694 5695 5695 5696 5697 5698 5699 5701 5702 5704 5705 5707 5708 5710 5712 5713 5715 5718 5721 5724 5727 5729 5731 5734 5736 5740 5743 5745 5748 5750 5752 5754 5756 5758 5761 5763 5765 5767 5770 5772 5775 5777 5779 5781 5783 5785 5787 5789 5791 5793 5795 5797 5799 5799 5800 5802 5802 5804 5806 5807 5808 5809 5810 5812 5813 5814 5815 5816 5817 5817 5818 5819 5820 5821 5824 5825 5825 5826 5826 5825 5825 5827 5828 5827 5825 5826 5827
5687 5687 5688 5689 5690 5691 5692 5693 5695 5696 5698 5700 5701 5703 5705 5706 5708 5710 5713 5716 5719 5722 5724 5727 5729 5732 5735 5739 5741 5744 5746 5747 5749 5752 5754 5757 5760 5762 5764 5766 5769 5771 5773 5775 5777 5779 5781 5784 5786 5788 5790 5792 5793 5794 5795 5796 5798 5800 5802 5804 5804 5805 5807 5808 5810 5811 5812 5813 5815 5815 5815 5815 5815 5817 5818 5821 5824 5823 5823 5822 5821 5823 5825 5825 5824 5823 5824 5825
5680 5680 5681 5682 5683 5684 5686 5687 5689 5691 5692 5694 5696 5698 5699 5701 5703 5706 5708 5711 5714 5717 5719 5722 5725 5728 5731 5734 5737 5739 5741 5742 5746 5748 5750 5753 5756 5758 5761 5763 5766 5768 5770 5772 5774 5776 5779 5781 5783 5785 5786 5787 5788 5789 5791 5794 5795 5798 5800 5800 5801 5803 5804 5806 5807 5809 5810 5812 5814 5813 5813 5812 5812 5814 5816 5819 5821 5820 5820 5819 5818 5821 5822 5822 5821 5822 5822 5822
5673 5673 5674 5675 5676 5678 5679 5681 5683 5685 5687 5689 5691 5693 5694 5696 5699 5701 5703 5706 5709 5712 5715 5717 5720 5723 5726 5729 5732 5735 5736 5739 5742 5744 5746 5749 5752 5755 5757 5759 5762 5764 5766 5769 5771 5774 5776 5777 5779 5781 5781 5782 5784 5787 5790 5793 5793 5795 5796 5796 5798 5800 5802 5803 5805 5807 5809 5811 5812 5811 5810 5810 5810 5812 5814 5817 5818 5817 5817 5816 5816 5818 5819 5819 5819 5819 5820 5820
5665 5666 5667 5668 5669 5671 5673 5675 5677 5679 5681 5683 5686 5688 5690 5692 5694 5696 5699 5702 5705 5707 5710 5712 5715 5719 5721 5725 5728 5729 5732 5735 5738 5741 5742 5745 5748 5750 5753 5755 5758 5760 5763 5766 5768 5770 5772 5773 5775 5776 5778 5780 5783 5786 5789 5790 5791 5792 5793 5795 5797 5798 5799 5802 5804 5805 5806 5808 5809 5808 5808 5808 5809 5810 5811 5814 5815 5814 5815 5814 5814 5816 5816 5816 5816 5816 5817 5818
5658 5658 5660 5661 5663 5665 5667 5669 5671 5674 5676 5678 5681 5683 5685 5687 5689 5691 5694 5697 5700 5702 5705 5708 5711 5714 5717 5720 5722 5724 5728 5731 5734 5737 5739 5741 5744 5746 5749 5752 5755 5757 5760 5762 5764 5766 5768 5769 5771 5773 5775 5778 5781 5783 5785 5787 5789 5790 5791 5793 5795 5796 5798 5800 5802 5803 5804 5805 5806 5806 5807 5807 5808 5808 5809 5812 5812 5812 5812 5812 5813 5814 5814 5814 5814 5814 5814 5815
5650 5651 5653 5655 5657 5659 5661 5664 5666 5669 5671 5674 5676 5679 5681 5682 5684 5687 5690 5693 5695 5697 5700 5703 5706 5709 5713 5715 5717 5721 5725 5727 5730 5733 5735 5737 5740 5743 5746 5749 5751 5754 5756 5758 5760 5762 5764 5766 5768 5771 5774 5776 5778 5780 5782 5785 5787 5788 5789 5792 5793 5795 5797 5798 5799 5800 5801 5803 5803 5804 5804 5804 5806 5806 5807 5809 5810 5809 5810 5810 5811 5811 5811 5812 5812 5812 5812 5812
5643 5644 5646 5649 5651 5653 5656 5659 5661 5664 5666 5669 5672 5674 5676 5678 5680 5683 5686 5688 5691 5693 5696 5699 5702 5705 5708 5710 5713 5718 5721 5724 5726 5729 5731 5734 5737 5740 5743 5745 5748 5750 5753 5755 5756 5758 5760 5763 5766 5769 5772 5774 5776 5777 5779 5782 5783 5785 5788 5791 5792 5793 5795 5795 5796 5797 5799 5800 5801 5801 5801 5802 5804 5804 5804 5807 5808 5808 5808 5809 5810 5810 5809 5809 5810 5810 5810 5810
5636 5638 5641 5643 5646 5648 5651 5654 5656 5659 5662 5665 5668 5670 5671 5674 5676 5678 5681 5684 5687 5689 5691 5695 5698 5701 5704 5706 5710 5714 5718 5721 5722 5724 5728 5731 5733 5736 5739 5742 5744 5746 5749 5751 5753 5756 5758 5761 5764 5766 5769 5771 5772 5774 5776 5778 5780 5782 5786 5789 5790 5791 5792 5793 5794 5795 5797 5798 5798 5799 5799 5800 5802 5802 5802 5804 5806 5806 5807 5808 5808 5808 5807 5806 5807 5808 5808 5808
5631 5633 5636 5638 5641 5644 5647 5649 5652 5654 5657 5661 5663 5665 5667 5670 5672 5675 5678 5680 5683 5685 5688 5692 5695 5697 5700 5702 5706 5710 5713 5716 5717 5721 5725 5727 5730 5733 5735 5738 5740 5743 5745 5748 5751 5753 5756 5759 5761 5763 5765 5766 5768 5771 5773 5775 5777 5780 5783 5786 5787 5788 5790 5791 5792 5793 5795 5797 5797 5797 5798 5798 5800 5800 5800 5802 5804 5804 5805 5805 5806 5806 5805 5805 5805 5806 5806 5806
5626 5628 5631 5634 5637 5639 5642 5645 5647 5650 5653 5657 5659 5661 5664 5666 5668 5671 5674 5677 5679 5682 5685 5688 5691 5693 5696 5699 5702 5705 5708 5712 5714 5718 5722 5723 5727 5729 5732 5735 5737 5740 5743 5745 5748 5750 5753 5756 5758 5760 5761 5763 5765 5768 5771 5773 5776 5779 5781 5783 5784 5786 5788 5789 5790 5792 5793 5795 5796 5796 5796 5796 5797 5798 5798 5799 5801 5802 5802 5802 5803 5803 5803 5802 5802 5803 5803 5804
5621 5624 5626 5629 5632 5635 5638 5641 5643 5646 5649 5652 5655 5658 5660 5663 5665 5668 5671 5673 5676 5678 5682 5685 5687 5690 5692 5695 5698 5700 5705 5708 5711 5715 5718 5720 5724 5727 5730 5732 5734 5737 5739 5742 5744 5747 5750 5752 5754 5756 5757 5760 5763 5767 5771 5774 5776 5777 5777 5779 5780 5781 5783 5785 5786 5787 5789 5792 5794 5794 5794 5794 5794 5796 5797 5798 5799 5800 5800 5800 5800 5800 5800 5799 5799 5800 5801 5801
5617 5620 5622 5625 5628 5631 5634 5636 5639 5642 5645 5648 5651 5654 5657 5659 5662 5665 5668 5670 5673 5676 5679 5682 5685 5687 5689 5691 5694 5697 5701 5705 5708 5711 5715 5718 5721 5725 5727 5729 5732 5734 5736 5739 5742 5745 5747 5749 5750 5752 5756 5760 5764 5768 5770 5771 5772 5772 5772 5773 5775 5777 5780 5781 5782 5784 5786 5788 5791 5792 5792 5793 5793 5793 5795 5797 5797 5797 5797 5797 5797 5797 5797 5797 5797 5798 5798 5799
5613 5616 5619 5621 5624 5627 5629 5632 5635 5638 5641 5644 5647 5651 5654 5657 5659 5662 5665 5668 5671 5673 5676 5679 5682 5684 5686 5689 5691 5695 5698 5702 5705 5708 5712 5715 5718 5722 5724 5727 5729 5731 5734 5738 5740 5742 5744 5745 5748 5752 5757 5760 5763 5766 5767 5767 5768 5769 5769 5771 5774 5776 5778 5780 5782 5783 5784 5785 5787 5788 5790 5791 5792 5791 5791 5793 5794 5794 5794 5794 5794 5795 5795 5795 5794 5795 5796 5796
5610 5612 5615 5618 5621 5623 5625 5628 5631 5634 5637 5640 5644 5647 5651 5654 5656 5659 5663 5666 5669 5671 5674 5677 5680 5682 5684 5686 5689 5692 5696 5699 5702 5705 5709 5712 5715 5718 5722 5724 5727 5730 5733 5735 5737 5738 5740 5743 5748 5753 5756 5758 5760 5762 5763 5764 5765 5766 5768 5771 5773 5775 5777 5778 5780 5782 5782 5783 5784 5785 5786 5788 5790 5791 5790 5790 5791 5791 5792 5793 5793 5793 5793 5792 5792 5793 5793 5793
5606 5609 5612 5615 5617 5619 5622 5625 5627 5630 5633 5637 5641 5644 5648 5651 5654 5657 5661 5664 5667 5669 5672 5675 5678 5681 5682 5684 5687 5690 5694 5697 5699 5702 5705 5709 5712 5716 5719 5722 5725 5728 5730 5731 5733 5735 5739 5744 5748 5751 5752 5753 5755 5757 5760 5761 5762 5764 5767 5769 5771 5772 5774 5775 5777 5779 5779 5780 5781 5781 5783 5785 5787 5790 5789 5789 5789 5789 5790 5791 5791 5792 5791 5791 5790 5790 5791 5791
5603 5606 5609 5612 5614 5616 5618 5621 5624 5627 5630 5634 5637 5640 5645 5648 5651 5655 5658 5661 5664 5666 5670 5673 5676 5679 5680 5682 5685 5689 5692 5696 5699 5701 5703 5707 5710 5714 5717 5719 5722 5724 5726 5728 5731 5735 5740 5744 5746 5747 5748 5749 5751 5754 5756 5758 5760 5762 5765 5768 5769 5770 5771 5772 5774 5775 5776 5777 5778 5779 5780 5782 5784 5787 5788 5788 5787 5787 5788 5788 5788 5788 5789 5789 5788 5788 5789 5790
5600 5603 5606 5608 5610 5612 5615 5618 5620 5623 5626 5630 5633 5638 5642 5646 5649 5653 5656 5659 5662 5664 5668 5671 5674 5676 5677 5679 5684 5688 5691 5694 5697 5700 5702 5705 5708 5711 5714 5716 5719 5721 5723 5727 5730 5734 5739 5741 5741 5742 5743 5746 5748 5751 5753 5755 5758 5761 5764 5766 5767 5768 5770 5771 5771 5772 5773 5774 5775 5776 5777 5779 5780 5784 5786 5787 5786 5786 5786 5785 5785 5785 5786 5785 5785 5786 5787 5787
5598 5600 5603 5605 5607 5609 5611 5614 5617 5620 5623 5627 5631 5637 5642 5645 5649 5652 5654 5658 5660 5664 5667 5670 5673 5674 5675 5678 5683 5686 5689 5692 5695 5698 5701 5703 5706 5708 5711 5713 5715 5718 5721 5725 5728 5732 5735 5736 5737 5739 5741 5744 5746 5749 5752 5753 5756 5758 5761 5764 5765 5767 5768 5769 5769 5770 5771 5772 5773 5774 5775 5776 5778 5781 5784 5784 5784 5784 5783 5782 5782 5783 5783 5782 5782 5783 5784 5784
5595 5597 5599 5601 5603 5605 5608 5611 5614 5617 5621 5626 5631 5637 5641 5644 5647 5650 5653 5656 5659 5663 5665 5668 5672 5673 5674 5679 5683 5685 5688 5691 5693 5696 5698 5700 5703 5706 5708 5710 5713 5716 5719 5722 5725 5729 5731 5732 5735 5737 5739 5741 5743 5747 5749 5751 5753 5756 5759 5762 5763 5765 5767 5768 5768 5768 5769 5771 5772 5772 5773 5774 5776 5779 5781 5781 5781 5781 5780 5780 5781 5781 5781 5780 5780 5780 5781 5782
5593 5594 5596 5598 5600 5603 5606 5609 5612 5615 5620 5625 5630 5636 5640 5643 5646 5649 5652 5655 5659 5661 5663 5667 5670 5672 5674 5678 5681 5684 5687 5689 5691 5694 5696 5698 5701 5704 5706 5708 5711 5714 5716 5719 5722 5726 5728 5730 5732 5735 5736 5738 5741 5744 5747 5748 5751 5753 5757 5761 5762 5763 5765 5766 5766 5766 5767 5768 5769 5769 5770 5771 5774 5777 5778 5777 5778 5778 5777 5778 5779 5780 5780 5779 5777 5777 5778 5779
5590 5591 5594 5596 5598 5601 5604 5606 5610 5614 5620 5625 5630 5634 5637 5640 5644 5648 5650 5654 5657 5659 5662 5666 5668 5671 5673 5675 5678 5682 5685 5686 5689 5692 5695 5696 5700 5702 5704 5707 5710 5712 5714 5717 5721 5725 5726 5728 5731 5732 5734 5736 5739 5743 5744 5746 5748 5750 5755 5759 5760 5761 5763 5764 5764 5763 5764 5765 5766 5766 5767 5769 5771 5773 5775 5774 5774 5775 5776 5776 5777 5778 5778 5778 5776 5775 5776 5776
5587 5589 5591 5593 5596 5599 5601 5605 5609 5614 5619 5623 5627 5630 5634 5637 5641 5645 5648 5652 5656 5658 5661 5664 5667 5669 5671 5673 5677 5679 5682 5683 5686 5690 5692 5694 5697 5700 5702 5705 5707 5709 5711 5715 5719 5722 5722 5725 5728 5730 5732 5735 5738 5740 5741 5743 5745 5748 5753 5757 5759 5760 5761 5762 5761 5760 5761 5762 5764 5766 5767 5768 5768 5769 5771 5771 5771 5772 5773 5774 5774 5775 5775 5775 5775 5774 5774 5774
5585 5587 5589 5591 5594 5597 5600 5604 5608 5613 5617 5621 5624 5628 5632 5636 5639 5643 5647 5651 5654 5657 5660 5662 5665 5667 5669 5672 5675 5677 5679 5681 5684 5687 5690 5691 5694 5696 5699 5702 5704 5706 5708 5711 5716 5719 5719 5721 5723 5725 5729 5733 5736 5737 5739 5741 5743 5746 5750 5753 5755 5756 5758 5759 5758 5758 5759 5759 5762 5766 5768 5767 5766 5765 5766 5768 5769 5768 5769 5770 5771 5771 5772 5773 5772 5772 5771 5771
5582 5585 5587 5590 5592 5595 5599 5603 5607 5611 5615 5618 5622 5627 5631 5634 5638 5642 5646 5650 5653 5656 5658 5661 5663 5666 5669 5671 5673 5675 5676 5678 5680 5684 5687 5687 5689 5692 5695 5698 5701 5702 5704 5709 5714 5716 5717 5718 5721 5723 5726 5729 5731 5733 5736 5738 5741 5745 5748 5750 5751 5752 5754 5755 5756 5756 5757 5758 5762 5766 5767 5765 5763 5762 5762 5765 5766 5765 5766 5767 5767 5768 5769 5770 5770 5770 5770 5770
5581 5583 5586 5588 5591 5594 5598 5602 5606 5610 5613 5617 5621 5625 5628 5632 5637 5641 5646 5649 5653 5656 5657 5659 5661 5664 5667 5669 5670 5673 5674 5675 5677 5682 5685 5685 5687 5691 5694 5696 5699 5701 5703 5708 5713 5715 5715 5717 5719 5721 5724 5725 5727 5730 5733 5736 5739 5743 5745 5746 5747 5748 5750 5751 5753 5754 5755 5757 5762 5765 5765 5762 5760 5758 5759 5761 5763 5763 5763 5764 5765 5766 5767 5767 5768 5768 5768 5768
5579 5582 5584 5587 5590 5594 5597 5601 5605 5608 5612 5616 5620 5623 5626 5631 5636 5642 5646 5649 5651 5653 5655 5657 5660 5662 5665 5667 5669 5670 5671 5673 5676 5680 5683 5684 5685 5689 5692 5694 5696 5699 5701 5706 5711 5712 5713 5715 5717 5718 5721 5722 5725 5727 5730 5733 5737 5739 5741 5742 5743 5745 5746 5748 5751 5753 5755 5758 5761 5762 5761 5758 5756 5756 5756 5758 5760 5761 5761 5762 5763 5764 5764 5765 5766 5766 5766 5765
5578 5580 5583 5586 5589 5593 5597 5600 5603 5606 5611 5615 5619 5621 5625 5631 5637 5641 5644 5647 5649 5650 5652 5654 5657 5660 5663 5665 5667 5669 5670 5672 5675 5678 5681 5682 5683 5686 5688 5691 5693 5696 5699 5703 5707 5709 5711 5713 5714 5716 5718 5720 5723 5726 5729 5732 5735 5736 5738 5739 5740 5742 5743 5746 5750 5752 5754 5756 5757 5758 5757 5755 5754 5754 5755 5756 5758 5759 5760 5760 5761 5761 5762 5763 5763 5763 5762 5762
5576 5579 5582 5585 5588 5592 5595 5598 5602 5606 5611 5615 5618 5621 5627 5633 5637 5639 5642 5645 5646 5647 5649 5651 5654 5658 5660 5662 5665 5667 5669 5671 5674 5676 5679 5681 5682 5685 5687 5689 5692 5695 5696 5699 5703 5706 5708 5711 5713 5716 5717 5719 5723 5727 5728 5730 5732 5733 5735 5736 5738 5740 5743 5746 5749 5750 5752 5752 5753 5754 5753 5752 5753 5753 5754 5755 5756 5757 5758 5758 5759 5760 5760 5760 5760 5760 5760 5760
5575 5578 5581 5584 5587 5591 5594 5598 5601 5606 5610 5613 5617 5622 5628 5633 5635 5638 5641 5643 5645 5646 5648 5650 5652 5655 5658 5661 5663 5665 5666 5669 5672 5674 5676 5679 5681 5683 5686 5688 5691 5693 5695 5698 5701 5704 5706 5709 5712 5714 5716 5719 5722 5725 5725 5727 5729 5730 5732 5735 5737 5740 5742 5744 5746 5747 5748 5749 5750 5751 5751 5751 5751 5752 5752 5753 5755 5755 5756 5756 5757 5758 5758 5758 5758 5758 5757 5756
5574 5577 5580 5583 5587 5590 5593 5597 5601 5605 5609 5612 5616 5623 5628 5631 5633 5637 5640 5642 5644 5645 5646 5649 5651 5654 5657 5659 5661 5663 5665 5667 5669 5671 5674 5677 5680 5682 5684 5686 5689 5692 5694 5697 5700 5702 5704 5707 5710 5712 5714 5717 5720 5722 5723 5724 5726 5727 5731 5734 5736 5737 5738 5739 5741 5743 5744 5745 5746 5747 5748 5748 5748 5750 5751 5752 5753 5754 5754 5755 5755 5756 5756 5756 5756 5756 5755 5754
5573 5576 5579 5582 5586 5589 5592 5596 5600 5604 5607 5611 5617 5622 5626 5628 5630 5634 5637 5639 5641 5642 5644 5647 5650 5653 5656 5658 5660 5662 5663 5665 5667 5670 5672 5675 5678 5680 5681 5684 5687 5690 5693 5695 5697 5700 5702 5705 5707 5709 5712 5714 5717 5719 5719 5721 5723 5725 5729 5732 5733 5733 5734 5736 5738 5739 5740 5742 5743 5744 5745 5745 5746 5747 5749 5750 5751 5751 5752 5752 5753 5754 5754 5754 5754 5754 5753 5752
5571 5574 5578 5581 5584 5588 5592 5595 5599 5602 5606 5611 5617 5620 5623 5625 5628 5632 5635 5637 5639 5640 5643 5646 5647 5650 5653 5655 5657 5659 5662 5664 5666 5669 5671 5673 5675 5676 5678 5681 5684 5687 5690 5692 5694 5697 5700 5703 5705 5707 5709 5711 5713 5714 5716 5719 5721 5723 5725 5727 5728 5729 5731 5733 5735 5737 5738 5739 5740 5741 5741 5742 5743 5745 5746 5748 5748 5749 5750 5750 5751 5752 5752 5751 5751 5751 5750 5750
5570 5574 5577 5580 5583 5587 5590 5594 5597 5601 5606 5611 5615 5617 5621 5623 5627 5631 5633 5636 5638 5639 5642 5644 5647 5650 5651 5652 5655 5657 5659 5662 5665 5668 5669 5671 5673 5674 5676 5679 5681 5683 5685 5688 5692 5695 5697 5700 5702 5704 5707 5709 5710 5712 5715 5718 5720 5720 5721 5723 5725 5727 5729 5730 5731 5733 5735 5736 5737 5738 5739 5740 5741 5742 5744 5745 5746 5747 5748 5749 5749 5749 5749 5749 5749 5748 5747 5747
5570 5573 5576 5579 5583 5586 5589 5593 5597 5601 5606 5609 5612 5616 5619 5620 5624 5629 5631 5634 5637 5638 5640 5643 5646 5649 5651 5652 5653 5655 5657 5659 5663 5665 5667 5669 5671 5672 5674 5677 5680 5682 5683 5686 5688 5690 5693 5697 5700 5702 5704 5707 5709 5711 5714 5716 5718 5719 5720 5722 5724 5726 5726 5727 5728 5730 5732 5734 5734 5735 5736 5737 5738 5740 5740 5742 5744 5745 5746 5746 5746 5746 5746 5746 5746 5745 5745 5745
5569 5573 5576 5579 5582 5585 5589 5592 5596 5600 5604 5607 5610 5614 5617 5618 5621 5626 5628 5631 5635 5637 5639 5642 5646 5648 5649 5650 5652 5654 5655 5657 5659 5662 5664 5667 5669 5671 5673 5676 5678 5680 5682 5684 5685 5686 5689 5694 5698 5700 5703 5706 5708 5708 5710 5713 5714 5715 5717 5719 5720 5722 5722 5724 5726 5728 5729 5731 5732 5733 5734 5735 5735 5737 5738 5740 5742 5743 5743 5743 5743 5744 5744 5743 5742 5742 5742 5742
5569 5574 5576 5578 5581 5584 5588 5591 5595 5599 5602 5605 5608 5612 5614 5616 5620 5624 5627 5630 5633 5635 5638 5641 5645 5647 5648 5649 5651 5652 5654 5655 5657 5660 5662 5665 5667 5669 5672 5674 5676 5678 5680 5682 5683 5685 5688 5691 5695 5698 5701 5704 5705 5706 5707 5709 5710 5711 5713 5715 5716 5718 5719 5722 5725 5727 5727 5728 5729 5730 5732 5732 5733 5734 5736 5737 5739 5740 5740 5740 5741 5741 5741 5740 5740 5739 5739 5739
5570 5574 5576 5578 5581 5584 5587 5590 5594 5597 5600 5603 5606 5609 5611 5614 5618 5623 5627 5630 5632 5634 5637 5640 5643 5645 5647 5648 5649 5650 5652 5654 5656 5659 5661 5663 5665 5668 5670 5672 5675 5677 5678 5680 5681 5684 5686 5688 5691 5695 5697 5700 5701 5702 5704 5706 5707 5708 5710 5711 5713 5715 5717 5720 5722 5724 5724 5725 5726 5727 5729 5730 5731 5732 5733 5735 5736 5737 5738 5738 5738 5739 5739 5738 5738 5737 5737 5737
5570 5574 5576 5578 5581 5585 5587 5590 5593 5595 5598 5601 5604 5607 5610 5613 5618 5622 5626 5629 5631 5633 5635 5638 5641 5643 5645 5647 5647 5649 5651 5653 5655 5657 5659 5661 5664 5666 5668 5671 5672 5675 5677 5678 5679 5682 5684 5686 5688 5691 5693 5696 5698 5699 5700 5702 5705 5706 5707 5709 5711 5713 5716 5718 5719 5720 5721 5722 5723 5725 5726 5727 5729 5730 5731 5733 5734 5735 5736 5736 5736 5736 5737 5736 5736 5735 5735 5735
5570 5574 5577 5579 5582 5585 5588 5590 5592 5595 5598 5601 5604 5606 5609 5613 5617 5622 5625 5628 5630 5632 5634 5637 5639 5641 5643 5645 5646 5648 5650 5652 5654 5657 5659 5661 5663 5665 5668 5669 5671 5673 5675 5676 5677 5680 5682 5683 5686 5689 5692 5694 5696 5697 5699 5700 5702 5704 5706 5707 5710 5712 5714 5715 5716 5718 5719 5719 5721 5722 5723 5725 5727 5728 5729 5731 5732 5733 5734 5734 5734 5734 5734 5735 5734 5734 5733 5733
5571 5575 5577 5580 5582 5585 5588 5590 5593 5596 5599 5602 5605 5608 5611 5614 5618 5622 5625 5626 5628 5631 5634 5636 5638 5640 5641 5643 5645 5647 5650 5652 5653 5656 5658 5660 5663 5665 5666 5668 5669 5671 5673 5675 5676 5678 5679 5681 5683 5686 5689 5691 5693 5696 5698 5699 5701 5703 5704 5706 5708 5710 5712 5713 5715 5715 5716 5717 5719 5720 5721 5723 5724 5726 5727 5728 5729 5730 5731 5731 5732 5732 5732 5733 5733 5733 5732 5731
5572 5575 5578 5580 5583 5586 5588 5591 5594 5597 5601 5604 5607 5609 5612 5615 5619 5621 5623 5624 5627 5630 5632 5635 5636 5637 5639 5642 5643 5645 5648 5650 5651 5653 5656 5659 5662 5663 5665 5667 5668 5669 5671 5673 5675 5676 5678 5679 5681 5683 5686 5688 5691 5693 5695 5697 5698 5700 5702 5704 5705 5707 5709 5711 5712 5713 5713 5715 5717 5718 5719 5721 5722 5724 5725 5726 5727 5727 5728 5728 5729 5729 5730 5730 5731 5731 5731 5730
5572 5575 5578 5581 5584 5586 5589 5591 5595 5598 5601 5604 5607 5610 5612 5616 5619 5620 5621 5623 5626 5628 5630 5631 5633 5634 5637 5640 5642 5643 5645 5647 5648 5650 5653 5656 5659 5662 5663 5665 5666 5667 5670 5671 5673 5674 5676 5677 5678 5680 5683 5685 5688 5691 5693 5694 5696 5697 5699 5701 5702 5704 5706 5708 5709 5710 5711 5712 5714 5715 5717 5718 5720 5721 5722 5724 5724 5724 5725 5725 5726 5726 5727 5728 5728 5728 5728 5728
5573 5576 5578 5581 5584 5587 5590 5593 5596 5599 5601 5604 5607 5610 5612 5615 5617 5618 5619 5621 5624 5626 5627 5629 5630 5632 5635 5637 5639 5641 5643 5645 5646 5648 5650 5653 5656 5659 5661 5662 5663 5665 5667 5669 5670 5672 5673 5674 5676 5678 5680 5682 5685 5687 5690 5691 5693 5695 5696 5698 5699 5701 5703 5705 5706 5707 5708 5710 5711 5712 5714 5715 5717 5719 5720 5721 5721 5722 5722 5723 5723 5723 5724 5725 5725 5725 5726 5726
5573 5575 5578 5582 5585 5588 5591 5594 5596 5599 5601 5604 5606 5609 5611 5614 5615 5616 5617 5619 5621 5623 5625 5626 5628 5630 5632 5635 5637 5639 5642 5644 5645 5646 5648 5650 5653 5655 5658 5660 5661 5663 5664 5665 5667 5668 5670 5672 5673 5676 5678 5679 5681 5684 5686 5688 5690 5692 5693 5695 5697 5698 5700 5702 5703 5705 5706 5707 5708 5710 5711 5713 5715 5716 5717 5718 5719 5719 5720 5721 5721 5721 5722 5722 5723 5723 5724 5724
5573 5576 5579 5582 5586 5588 5591 5594 5596 5598 5601 5603 5605 5607 5609 5612 5613 5614 5616 5618 5620 5622 5623 5625 5627 5629 5631 5633 5635 5638 5641 5643 5644 5644 5646 5647 5649 5652 5654 5657 5659 5660 5661 5663 5664 5665 5667 5668 5670 5673 5675 5676 5678 5681 5682 5684 5686 5687 5689 5692 5694 5696 5697 5699 5700 5702 5703 5704 5706 5707 5709 5711 5712 5713 5714 5715 5716 5716 5717 5718 5719 5719 5719 5720 5721 5721 5722 5722